Lid_Strength_Index
13 13 13 13 14 14 15 14 17 16 15 13 10 9 10 10 10 11 12 13 13 14 14 14 14 14 14 14 13 13 13 12 12 12 12 12 9 10 3 5 6 6 7 9
15 13 13 14 13 14 14 13 14 13 13 8 8 9 10 11 11 12 13 14 14 14 14 15 15 15 15 14 14 13 14 14 13 13 13 13 13 12 12 10 11 11 12 12
18 14 15 17 14 13 11 10 11 14 11 8 10 10 11 11 11 13 14 14 14 14 14 15 15 15 15 15 14 14 15 15 14 13 14 13 14 15 15 15 14 14 14 14
17 16 22 13 10 10 11 10 10 10 9 8 9 11 11 11 12 13 14 14 14 14 14 14 14 15 15 15 15 15 15 15 15 15 15 14 15 16 16 16 16 15 15 14
17 17 15 12 11 12 12 12 12 12 10 11 11 11 13 11 13 14 14 14 14 14 14 14 14 14 15 16 15 16 16 17 16 16 16 16 16 16 16 17 17 16 15 15
15 18 19 14 11 9 10 15 12 13 13 12 12 13 15 13 13 14 14 14 14 13 14 15 14 14 15 16 17 17 17 16 16 16 16 17 17 17 17 16 17 17 17 16
15 16 14 12 11 10 16 16 12 13 14 12 15 15 15 14 15 14 14 14 13 13 14 14 14 14 16 16 17 16 16 16 16 16 16 16 17 17 17 17 17 18 18 18
14 16 18 11 12 15 14 12 13 14 14 15 16 16 16 16 16 16 15 15 14 14 14 14 13 14 15 16 15 15 16 16 17 17 16 16 17 17 17 16 17 18 18 19
14 15 11 11 13 12 12 13 13 14 15 15 17 18 18 18 18 17 16 16 15 15 15 14 14 14 15 14 14 15 15 16 16 16 16 16 16 16 16 16 17 17 18 17
13 12 12 11 11 12 12 13 14 14 15 16 17 17 18 18 18 18 17 16 15 15 15 16 15 14 14 13 13 14 15 15 15 15 16 15 15 16 16 16 16 16 16 17
13 12 12 12 12 12 13 13 14 14 15 15 16 16 16 17 17 17 17 17 16 16 16 16 15 15 14 14 13 14 15 14 15 15 15 16 15 15 15 15 15 16 16 16
15 12 12 12 11 11 13 13 14 15 15 15 15 16 16 17 16 17 17 17 17 17 17 17 16 15 15 13 13 13 14 15 15 15 15 15 16 16 15 15 15 15 16 16
12 11 12 12 12 12 13 14 14 14 14 15 15 15 15 16 16 16 17 17 19 19 19 18 18 18 17 15 14 14 14 14 15 15 16 16 16 16 16 16 17 16 16 16
10 11 13 12 13 12 13 13 13 14 14 15 15 15 15 16 16 17 17 17 17 18 19 19 19 19 19 17 15 16 15 17 15 15 16 16 16 16 17 17 19 19 18 18
10 10 11 11 12 13 13 13 15 15 15 15 15 16 16 17 18 19 18 17 17 18 19 19 19 19 19 18 16 15 14 14 14 15 16 16 16 16 16 17 18 18 18 18
10 11 11 12 13 13 13 14 15 15 15 16 16 17 18 18 18 19 19 19 19 21 21 21 19 20 19 18 15 14 14 16 16 14 15 15 15 16 16 16 17 18 18 18
11 12 11 13 13 14 14 14 14 15 16 16 17 17 18 18 19 20 21 22 22 23 22 22 21 20 19 18 15 14 14 14 16 14 15 15 16 16 16 17 17 18 18 19
10 10 9 11 12 14 14 15 15 16 17 17 19 20 21 21 21 22 23 23 22 21 22 22 20 19 19 17 16 15 15 15 15 15 15 15 16 16 16 16 17 18 18 19
10 11 11 12 13 14 16 17 18 19 20 21 21 23 24 24 23 23 24 22 22 20 21 21 19 18 18 18 17 16 16 15 15 16 15 17 16 16 16 16 17 17 17 18
14 14 14 15 16 17 19 20 20 22 23 23 25 23 23 25 25 24 23 21 21 20 21 20 19 18 18 18 19 16 16 16 17 16 17 16 16 16 16 18 16 17 17 17
17 17 19 20 22 22 23 23 22 23 25 25 22 23 23 24 25 25 20 19 20 20 20 20 20 18 18 19 17 17 17 17 17 17 18 17 17 16 16 15 15 15 16 16
20 21 22 22 22 24 25 23 23 25 25 25 27 27 24 21 22 22 22 19 18 22 19 18 19 23 20 21 18 17 17 17 17 16 16 16 16 15 15 15 15 15 15 15
20 21 22 22 21 22 23 23 24 23 24 24 23 22 19 18 18 18 18 18 17 20 17 17 22 24 24 17 17 17 16 16 15 15 15 15 15 15 15 15 14 14 14 15
20 20 21 21 21 20 21 21 21 21 22 21 21 22 19 17 17 17 16 20 22 21 18 18 20 23 25 17 16 16 15 14 15 14 14 19 14 15 14 14 14 13 15 16
19 19 20 20 19 18 18 18 18 18 18 17 17 17 18 17 17 16 17 17 21 20 16 22 23 23 17 16 16 16 15 15 14 15 14 14 14 15 14 14 14 14 14 14
18 18 18 17 17 17 17 17 17 17 16 16 17 18 18 18 18 17 17 18 18 20 16 16 17 16 15 15 15 15 15 15 15 15 15 14 15 15 15 15 15 14 14 14
17 18 17 17 16 16 16 16 17 17 19 17 18 18 19 19 19 19 19 17 17 17 16 16 15 16 15 15 14 14 14 14 15 14 14 14 15 15 15 15 14 14 15 15